IW6NXR-13 Weather Reports


Display with metric or nautical units.
time (UTC)temp
F
wind
direction
speed
MPH
gust
MPH
rain 1hr
in
rain 24hr
in
rain mn
in
humidity
%
barometer
mb
20260503224907 51 0.0 0.0 0.00 0.00 0.00 1017.7
20260503222906 50 0.0 0.0 0.00 0.00 0.00 1017.7
20260503220906 50 0.0 0.0 0.00 0.00 0.00 1017.6
20260503214906 53 0.0 0.0 0.00 0.00 0.00 1017.5
20260503212905 56 0.0 0.0 0.00 0.00 0.00 1017.2
20260503210905 57 0.0 0.0 0.00 0.00 0.00 1017.2
20260503204905 56 0.0 0.0 0.00 0.00 0.00 1017.3
20260503202904 56 0.0 0.0 0.00 0.00 0.00 1017.3
20260503200904 57 0.0 0.0 0.00 0.00 0.00 1017.4
20260503194904 56 0.0 0.0 0.00 0.00 0.00 1017.4
20260503192903 55 0.0 0.0 0.00 0.00 0.00 1017.3
20260503190903 54 0.0 0.0 0.00 0.00 0.00 1017.3
20260503184903 55 0.0 0.0 0.00 0.00 0.00 1017.2
20260503182902 56 0.0 0.0 0.00 0.00 0.00 1016.9
20260503180902 57 0.0 0.0 0.00 0.00 0.00 1016.7
20260503174902 60 0.0 0.0 0.00 0.00 0.00 1016.6
20260503172901 63 0.0 0.0 0.00 0.00 0.00 1016.6
20260503170901 65 0.0 0.0 0.00 0.00 0.00 1016.5
20260503150859 69 0.0 0.0 0.00 0.00 0.00 1016.7
20260503130857 72 0.0 0.0 0.00 0.00 0.00 1017.5
20260503080852 99 0.0 0.0 0.00 0.00 0.00 1019.1
20260503072852 98 0.0 0.0 0.00 0.00 0.00 1019.2
20260503070851 95 0.0 0.0 0.00 0.00 0.00 1019.3
20260503054850 82 0.0 0.0 0.00 0.00 0.00 1019.5
20260503052850 81 0.0 0.0 0.00 0.00 0.00 1019.5
20260503050850 76 0.0 0.0 0.00 0.00 0.00 1019.5
20260503044849 67 0.0 0.0 0.00 0.00 0.00 1019.6
20260503042849 56 0.0 0.0 0.00 0.00 0.00 1019.7
20260503040849 51 0.0 0.0 0.00 0.00 0.00 1019.9